Wind_Speed
15 14 14 13 14 13 13 13 13 13 13 12 12 12 11 11 10 10 10 9 9 9 9 9 9 8 9 9 8 8 8 9 10 9 9 9 10 10 9 8 8 9
16 15 14 14 14 13 13 13 13 13 13 12 11 11 11 11 11 11 11 10 10 10 9 9 9 9 8 8 9 9 9 9 9 9 8 9 10 9 9 9 9 9
17 16 15 15 14 14 13 13 13 13 12 11 11 11 11 11 12 11 11 11 10 10 9 9 10 10 9 9 10 9 9 8 7 8 8 9 9 9 10 10 10 9
18 17 16 17 16 16 15 14 13 13 13 12 12 12 11 11 12 11 11 11 10 10 10 10 11 10 10 10 10 9 8 8 7 7 8 8 9 10 11 12 11 10
19 18 18 18 17 17 17 16 14 14 13 12 11 12 11 10 10 10 10 11 10 10 10 10 11 11 10 10 10 9 8 8 7 7 8 8 8 9 11 12 11 10
21 20 19 19 18 17 17 17 16 15 14 13 12 12 11 10 10 10 11 11 10 10 10 10 10 10 10 10 9 9 8 8 7 7 7 7 7 8 9 10 9 9
21 21 21 20 19 18 17 17 16 16 15 13 12 12 12 10 10 11 11 11 10 10 10 10 10 10 10 9 9 9 8 8 8 8 7 7 8 8 7 7 7 7
21 21 22 21 21 20 18 18 17 15 14 13 13 13 12 12 11 12 12 11 10 10 10 9 9 9 9 9 9 8 8 8 8 7 7 7 7 7 6 6 7 7
20 21 21 22 22 21 20 19 18 16 15 14 14 14 14 13 13 13 13 12 11 11 10 9 9 9 9 9 9 9 9 9 8 7 6 6 6 5 5 6 6 6
20 20 20 21 22 21 21 20 19 18 17 16 16 16 15 15 15 15 14 14 12 11 10 10 10 10 10 9 9 9 9 9 8 7 7 7 6 5 5 5 5 5
19 20 20 20 20 21 21 20 20 20 19 18 17 17 16 15 15 15 15 15 14 12 12 12 11 11 10 10 9 10 10 9 9 8 8 7 6 6 5 6 6 5
20 20 20 20 20 20 20 20 20 20 19 19 18 17 16 16 16 16 16 17 16 15 14 14 12 11 10 10 10 10 11 10 10 10 9 8 7 7 7 7 7 6
22 21 20 20 20 20 20 20 20 19 20 20 19 18 18 17 17 17 17 17 17 16 15 15 14 12 11 10 10 11 11 11 11 11 10 9 8 8 8 9 8 7
22 22 21 20 20 20 20 20 20 19 19 21 19 19 19 19 18 17 17 16 16 15 16 16 15 14 13 12 12 11 11 12 12 13 12 11 10 10 10 10 9 9
23 23 23 23 23 23 22 22 21 20 20 20 19 19 20 20 19 18 17 17 16 15 16 17 16 15 14 13 13 12 12 13 13 13 13 13 12 11 11 11 11 11
25 25 26 26 25 26 25 24 24 23 23 22 20 20 20 20 21 21 20 19 17 15 15 17 17 16 16 15 14 13 13 13 13 13 14 13 12 12 13 13 12 12
28 28 28 28 27 27 27 26 25 25 25 23 23 22 21 21 22 22 21 20 18 17 17 18 18 17 17 17 16 14 14 14 14 14 14 14 13 13 14 13 13 14
33 33 32 32 31 31 30 29 28 27 26 26 25 25 24 23 23 22 22 21 20 19 19 20 19 18 19 20 18 16 15 16 16 15 15 14 14 14 14 14 14 15
36 37 37 37 35 33 32 31 31 31 30 29 29 28 27 26 25 25 24 23 22 21 22 22 21 21 22 22 20 18 17 17 18 18 17 17 16 15 15 16 16 15
35 36 38 39 38 37 36 35 34 34 33 32 32 31 30 29 28 28 27 26 26 25 25 26 25 25 24 22 21 20 18 18 20 20 19 19 18 18 17 17 17 17
33 34 35 37 38 38 39 39 39 38 37 35 35 35 34 32 32 31 30 30 30 29 29 28 27 27 26 24 24 24 21 20 21 21 21 21 20 19 19 19 19 20
32 33 33 33 35 36 36 37 38 38 38 37 37 37 37 37 37 36 34 33 33 33 31 29 28 29 30 28 27 27 24 22 22 23 23 23 22 22 23 23 23 23
31 30 29 29 31 31 31 31 32 33 35 35 35 34 34 35 37 38 37 36 36 36 34 32 30 30 31 30 30 29 26 23 22 23 24 24 24 24 25 25 26 25
28 27 26 25 26 26 25 25 25 27 28 29 28 28 29 32 34 37 38 40 41 40 37 34 32 32 32 31 28 27 26 24 22 22 23 23 23 23 24 24 25 25
26 26 25 25 24 23 23 22 21 22 23 22 21 21 23 26 29 32 34 38 42 43 41 40 37 35 34 31 27 26 26 25 24 22 22 22 22 22 22 22 23 23
24 24 24 23 23 23 23 21 20 19 20 19 19 18 19 21 24 27 29 32 36 36 38 41 40 37 34 30 27 28 28 26 24 22 21 21 21 22 22 22 22 23
Wind_Direction
202 198 199 202 204 204 203 205 206 209 213 214 216 217 215 217 218 215 217 222 223 221 223 229 228 226 229 234 233 230 227 222 220 221 219 222 225 222 221 217 213 221
204 200 199 202 205 205 205 208 210 213 216 216 220 224 223 224 223 218 216 220 224 224 224 227 229 231 231 235 237 236 234 232 228 227 227 230 233 232 230 227 224 226
208 205 204 205 207 207 210 213 213 216 220 217 220 226 227 228 227 223 220 220 222 224 226 226 226 230 231 234 238 237 239 241 237 237 237 238 238 237 238 238 234 234
211 209 209 210 210 210 214 218 216 218 222 221 222 225 226 227 228 228 226 225 226 226 227 228 229 231 231 233 237 235 239 247 248 249 249 249 248 242 241 243 240 238
214 213 213 215 216 214 215 220 222 221 223 224 224 226 227 228 231 233 230 226 225 226 229 233 234 235 233 234 235 234 239 248 252 254 253 252 252 245 242 245 246 245
215 214 215 219 220 219 218 222 225 224 225 225 225 228 229 228 231 236 234 228 224 224 228 232 235 235 236 236 235 233 239 249 251 250 252 252 248 243 241 243 248 252
216 216 216 220 223 224 223 225 226 225 227 229 230 234 236 232 231 234 236 234 230 229 228 231 235 235 238 242 241 237 239 245 250 249 250 251 249 247 247 246 248 252
217 217 217 219 223 226 227 230 232 230 232 235 236 237 238 237 234 233 237 238 236 237 234 233 238 240 244 249 250 248 247 246 249 251 250 248 249 253 258 258 258 259
218 218 218 218 222 226 229 233 237 236 235 235 236 238 238 239 239 238 240 243 242 245 245 240 241 242 246 251 253 253 253 251 251 251 251 250 249 254 259 260 263 265
220 221 221 221 222 225 228 230 236 240 239 236 237 239 240 239 240 241 242 242 241 243 246 246 245 245 247 253 257 255 252 251 251 251 253 255 256 260 264 266 268 268
220 223 224 225 225 226 228 229 233 239 242 242 241 242 243 242 243 244 245 243 241 241 244 245 243 244 247 253 260 262 258 256 253 251 252 254 258 265 267 269 269 268
223 225 226 228 229 230 231 232 234 238 242 244 244 245 246 245 246 247 248 248 244 241 244 248 245 244 247 250 256 262 263 263 261 255 251 251 256 261 264 265 266 268
228 226 227 230 233 234 234 236 237 238 242 245 246 247 248 248 248 250 249 247 243 241 243 247 247 247 246 246 249 254 257 260 262 259 254 252 253 255 258 262 266 270
228 228 231 233 234 236 237 239 240 239 242 248 249 248 251 253 252 252 251 246 241 241 244 247 247 248 248 247 247 250 255 257 258 259 258 255 253 256 259 263 268 272
231 232 236 237 237 238 237 237 240 241 243 247 249 249 250 253 255 253 252 252 248 243 244 247 247 248 252 252 248 249 254 256 258 260 262 261 262 265 268 269 270 272
238 238 239 239 239 241 240 239 238 239 241 242 245 248 247 249 253 251 248 251 252 248 246 248 248 249 252 251 248 250 253 256 259 262 261 261 264 269 271 270 271 273
242 243 243 242 240 240 242 244 243 242 243 243 245 248 247 246 247 246 246 247 248 249 250 250 252 254 253 250 247 248 252 256 258 258 260 262 265 269 271 271 270 273
245 246 246 245 243 241 241 241 242 243 244 246 246 247 249 251 252 252 253 251 248 250 252 251 254 256 255 253 250 246 248 254 258 258 260 264 266 268 272 272 271 273
246 247 247 247 246 246 246 244 243 243 243 244 245 244 244 248 251 255 257 256 254 255 255 252 250 250 250 250 248 244 244 251 257 259 261 262 264 266 268 269 273 278
246 247 248 248 248 248 249 248 247 245 244 244 246 247 246 246 248 250 253 255 256 257 256 255 252 250 248 246 245 245 244 246 252 257 259 260 261 263 265 268 272 274
249 249 250 251 251 251 250 249 247 247 246 246 247 250 251 252 251 249 249 251 254 254 254 256 259 258 254 248 247 249 247 244 248 253 256 258 260 262 264 266 265 264
252 253 254 255 254 253 253 252 252 252 252 251 251 252 253 253 253 251 249 249 250 251 251 252 255 259 260 256 253 254 253 251 252 253 255 256 257 258 259 261 263 265
251 253 255 255 254 252 252 253 253 255 255 254 255 255 253 253 254 253 252 250 249 248 248 247 247 251 257 259 258 258 257 256 256 256 257 256 256 256 258 262 266 268
247 250 250 250 250 249 249 249 249 251 253 253 254 255 255 255 256 255 253 251 250 249 247 245 243 242 246 252 256 257 257 258 257 256 258 258 256 257 259 261 265 267
244 247 248 248 248 247 247 246 244 245 248 250 252 254 255 255 255 255 254 254 254 252 247 243 240 239 242 246 249 249 251 256 257 253 255 260 260 260 260 261 263 266
244 246 246 247 248 246 244 243 242 242 244 247 250 252 252 252 253 256 257 258 257 254 250 246 240 238 241 243 244 243 244 250 254 251 251 258 261 262 263 263 264 267
Height
3223 3224 3225 3226 3227 3229 3230 3231 3233 3233 3234 3236 3237 3237 3238 3239 3240 3241 3242 3243 3243 3244 3244 3245 3245 3246 3246 3247 3247 3248 3248 3249 3249 3250 3251 3251 3252 3252 3253 3253 3254 3254
3222 3223 3225 3226 3227 3228 3230 3231 3232 3233 3234 3235 3236 3237 3238 3239 3240 3241 3242 3242 3243 3243 3244 3245 3245 3246 3246 3247 3247 3248 3248 3249 3249 3250 3250 3251 3251 3252 3253 3253 3253 3254
3221 3223 3224 3226 3227 3228 3229 3230 3231 3232 3233 3235 3236 3236 3237 3238 3239 3240 3241 3241 3242 3243 3244 3244 3245 3245 3246 3246 3247 3247 3248 3248 3249 3250 3250 3251 3251 3251 3252 3252 3252 3253
3221 3222 3224 3225 3226 3227 3228 3229 3231 3232 3232 3234 3235 3236 3237 3238 3239 3239 3240 3240 3241 3242 3243 3243 3244 3245 3246 3246 3246 3247 3247 3248 3248 3249 3249 3250 3250 3250 3251 3251 3252 3252
3220 3222 3223 3224 3225 3227 3228 3229 3230 3231 3232 3233 3234 3236 3237 3237 3238 3239 3240 3240 3241 3241 3242 3243 3243 3244 3245 3245 3246 3246 3247 3247 3248 3248 3248 3248 3249 3249 3250 3250 3251 3251
3219 3220 3222 3223 3224 3226 3227 3228 3229 3231 3232 3232 3233 3234 3236 3237 3237 3238 3239 3240 3240 3241 3241 3242 3243 3243 3244 3244 3245 3245 3246 3246 3246 3247 3247 3247 3248 3248 3249 3249 3250 3250
3217 3219 3221 3222 3224 3225 3226 3227 3228 3230 3231 3232 3233 3234 3235 3236 3237 3237 3238 3239 3239 3240 3240 3241 3242 3243 3243 3244 3244 3245 3245 3245 3246 3246 3246 3247 3247 3248 3248 3249 3249 3249
3216 3218 3219 3221 3222 3224 3225 3226 3227 3228 3230 3231 3232 3233 3234 3235 3236 3236 3237 3238 3238 3239 3240 3240 3241 3242 3242 3243 3243 3244 3244 3245 3245 3246 3246 3246 3247 3247 3247 3248 3248 3248
3215 3216 3218 3220 3221 3223 3224 3225 3226 3227 3229 3230 3231 3231 3233 3234 3235 3235 3236 3237 3237 3238 3239 3240 3241 3241 3241 3242 3243 3243 3244 3244 3244 3245 3245 3245 3246 3246 3247 3247 3248 3248
3214 3215 3217 3218 3220 3221 3223 3224 3225 3226 3227 3229 3229 3230 3231 3233 3234 3234 3235 3236 3237 3238 3239 3239 3240 3240 3241 3241 3242 3242 3243 3244 3244 3244 3245 3245 3245 3246 3246 3246 3247 3247
3212 3214 3215 3217 3218 3220 3221 3223 3224 3225 3225 3227 3228 3229 3230 3232 3233 3234 3235 3235 3236 3237 3238 3238 3239 3239 3240 3241 3241 3242 3242 3243 3243 3243 3244 3244 3245 3245 3245 3246 3246 3246
3211 3212 3214 3215 3217 3218 3220 3221 3222 3223 3224 3225 3226 3227 3229 3230 3231 3232 3234 3234 3235 3235 3236 3237 3238 3238 3239 3240 3240 3241 3241 3242 3242 3243 3243 3243 3244 3244 3244 3245 3245 3245
3210 3211 3212 3214 3215 3217 3218 3219 3220 3221 3222 3223 3224 3225 3227 3228 3230 3231 3232 3233 3233 3234 3235 3236 3237 3237 3237 3238 3239 3240 3240 3241 3241 3241 3242 3242 3242 3242 3243 3244 3244 3244
3208 3210 3211 3212 3214 3215 3216 3217 3218 3220 3221 3221 3222 3223 3224 3226 3227 3228 3230 3231 3232 3232 3233 3234 3235 3236 3236 3237 3237 3238 3239 3239 3240 3240 3240 3241 3241 3241 3242 3242 3242 3243
3206 3207 3209 3210 3212 3213 3214 3215 3217 3218 3219 3219 3220 3221 3222 3223 3224 3226 3227 3228 3230 3231 3232 3232 3233 3234 3235 3236 3236 3236 3237 3237 3238 3239 3239 3240 3240 3241 3241 3241 3241 3241
3204 3205 3207 3208 3210 3211 3212 3213 3215 3215 3216 3217 3218 3219 3220 3221 3222 3223 3225 3225 3227 3229 3230 3230 3231 3232 3233 3234 3234 3235 3235 3235 3236 3238 3238 3238 3239 3239 3240 3240 3240 3240
3201 3202 3204 3205 3207 3209 3210 3211 3213 3214 3215 3216 3217 3217 3217 3218 3219 3219 3221 3222 3224 3226 3227 3228 3229 3230 3231 3232 3232 3233 3233 3234 3235 3236 3237 3237 3237 3238 3238 3238 3239 3239
3197 3199 3200 3202 3204 3206 3207 3209 3211 3212 3213 3214 3215 3216 3216 3217 3217 3217 3218 3219 3220 3222 3224 3225 3226 3227 3229 3230 3231 3231 3231 3232 3233 3233 3234 3235 3236 3236 3237 3237 3238 3238
3194 3195 3196 3198 3201 3203 3205 3207 3208 3209 3210 3211 3211 3213 3214 3216 3217 3217 3218 3218 3217 3219 3222 3222 3222 3223 3224 3226 3228 3229 3229 3230 3230 3231 3232 3233 3234 3234 3235 3235 3236 3236
3190 3192 3192 3194 3198 3201 3202 3204 3206 3206 3207 3208 3208 3209 3211 3213 3214 3214 3216 3216 3216 3217 3219 3218 3218 3220 3222 3223 3224 3226 3227 3228 3228 3229 3229 3230 3231 3232 3232 3233 3233 3233
3188 3189 3190 3191 3194 3196 3197 3199 3200 3200 3202 3204 3205 3206 3207 3208 3209 3210 3212 3213 3214 3214 3215 3215 3217 3219 3220 3220 3221 3223 3224 3225 3226 3226 3227 3227 3228 3229 3229 3229 3229 3229
3185 3186 3187 3189 3190 3191 3192 3194 3195 3195 3197 3199 3200 3202 3203 3204 3205 3206 3208 3209 3210 3210 3212 3213 3214 3216 3217 3218 3219 3219 3221 3222 3223 3223 3224 3225 3225 3225 3225 3225 3225 3225
3181 3182 3185 3186 3187 3188 3189 3190 3191 3193 3194 3194 3195 3196 3197 3198 3200 3201 3203 3204 3205 3207 3208 3209 3211 3212 3214 3215 3216 3217 3218 3219 3220 3221 3221 3222 3222 3222 3222 3222 3223 3223
3178 3180 3182 3183 3183 3184 3186 3187 3188 3189 3190 3190 3190 3190 3192 3193 3195 3196 3198 3199 3200 3202 3204 3205 3207 3209 3210 3212 3213 3215 3215 3216 3217 3218 3218 3219 3220 3220 3220 3220 3220 3221
3175 3177 3179 3180 3181 3181 3182 3184 3185 3186 3186 3187 3186 3187 3188 3189 3190 3192 3193 3193 3194 3196 3198 3200 3203 3205 3207 3209 3210 3212 3213 3214 3214 3215 3216 3216 3217 3217 3218 3218 3218 3218
3173 3175 3176 3177 3178 3179 3180 3181 3182 3183 3184 3184 3184 3185 3186 3186 3187 3188 3188 3189 3189 3191 3192 3194 3197 3200 3203 3205 3207 3209 3210 3211 3211 3212 3213 3214 3214 3214 3215 3215 3215 3215